Total_Precipitation_Accumulation
0.13 0.17 0.31 0.27 0.23 0.27 0.34 0.37 0.27 0.24 0.25 0.25 0.24 0.25 0.30 0.37 0.35 0.32 0.30 0.37 0.46 0.51 0.53 0.56 0.64 0.71 0.71 0.70 0.66 0.59 0.53 0.56 0.62 0.66 0.61 0.59 0.69 0.86 1.13 1.27 1.25 0.88 0.74
0.09 0.20 0.34 0.31 0.26 0.27 0.30 0.29 0.24 0.23 0.23 0.22 0.21 0.24 0.27 0.27 0.30 0.25 0.24 0.30 0.39 0.46 0.46 0.45 0.48 0.57 0.62 0.63 0.62 0.54 0.50 0.55 0.64 0.70 0.61 0.50 0.67 0.94 1.17 1.22 1.33 0.87 0.76
0.14 0.23 0.28 0.31 0.26 0.23 0.21 0.21 0.23 0.23 0.20 0.19 0.20 0.22 0.22 0.22 0.23 0.24 0.26 0.26 0.31 0.37 0.43 0.39 0.40 0.44 0.46 0.52 0.56 0.56 0.55 0.54 0.68 0.82 0.96 0.65 0.50 0.94 1.11 1.12 1.03 0.75 0.68
0.21 0.23 0.21 0.24 0.22 0.18 0.15 0.17 0.21 0.21 0.17 0.17 0.23 0.23 0.19 0.21 0.25 0.25 0.26 0.24 0.27 0.27 0.30 0.33 0.38 0.35 0.34 0.41 0.40 0.49 0.58 0.68 0.88 1.20 1.40 0.86 0.51 0.68 0.91 0.86 0.76 0.65 0.60
0.22 0.18 0.17 0.20 0.19 0.15 0.14 0.15 0.18 0.19 0.17 0.17 0.21 0.21 0.18 0.22 0.26 0.26 0.23 0.25 0.30 0.27 0.21 0.23 0.30 0.28 0.29 0.30 0.29 0.42 0.56 0.69 1.01 1.30 1.22 1.10 0.93 0.78 0.83 0.80 0.76 0.72 0.67
0.12 0.11 0.12 0.17 0.16 0.13 0.14 0.14 0.15 0.17 0.17 0.15 0.17 0.19 0.19 0.24 0.31 0.29 0.25 0.28 0.34 0.33 0.25 0.23 0.24 0.25 0.26 0.25 0.27 0.43 0.56 0.77 1.02 0.90 0.83 0.95 0.97 0.92 0.89 0.98 1.06 0.96 0.83
0.07 0.07 0.09 0.15 0.14 0.12 0.14 0.14 0.14 0.15 0.15 0.13 0.15 0.17 0.17 0.21 0.26 0.29 0.27 0.27 0.29 0.29 0.25 0.25 0.24 0.26 0.28 0.29 0.33 0.45 0.61 0.89 0.98 0.80 0.75 0.89 0.89 0.80 0.89 1.10 1.35 1.25 1.03
0.06 0.06 0.10 0.15 0.15 0.13 0.13 0.14 0.14 0.13 0.13 0.13 0.14 0.14 0.16 0.20 0.25 0.27 0.24 0.23 0.23 0.21 0.20 0.24 0.28 0.30 0.33 0.35 0.37 0.46 0.60 0.67 0.69 0.73 0.68 0.72 0.58 0.61 0.87 1.13 1.34 1.27 1.08
0.13 0.08 0.12 0.15 0.15 0.14 0.16 0.17 0.17 0.15 0.15 0.16 0.15 0.15 0.16 0.18 0.21 0.23 0.24 0.23 0.23 0.24 0.24 0.27 0.31 0.36 0.37 0.38 0.39 0.46 0.60 0.61 0.63 0.77 0.79 0.84 0.72 0.83 1.11 1.25 1.26 1.28 1.14
0.35 0.24 0.23 0.24 0.24 0.21 0.18 0.19 0.23 0.22 0.19 0.20 0.20 0.19 0.19 0.20 0.23 0.25 0.26 0.26 0.26 0.31 0.34 0.39 0.43 0.42 0.40 0.43 0.46 0.55 0.67 0.65 0.68 0.81 0.99 0.86 0.85 1.06 1.37 1.49 1.46 1.45 1.38
0.75 0.59 0.46 0.41 0.33 0.28 0.25 0.23 0.29 0.31 0.30 0.29 0.30 0.28 0.30 0.37 0.41 0.46 0.39 0.44 0.45 0.49 0.53 0.59 0.64 0.61 0.54 0.51 0.63 0.78 0.75 0.82 0.97 1.04 1.11 0.94 0.95 1.21 1.47 1.60 1.63 1.65 1.59
0.99 0.88 0.76 0.71 0.49 0.40 0.39 0.50 0.56 0.50 0.50 0.53 0.63 0.61 0.69 0.81 0.79 0.58 0.63 0.83 0.90 1.02 1.02 1.07 1.14 1.01 0.87 0.81 1.22 1.47 0.96 1.04 1.12 1.22 1.40 1.23 1.25 1.55 1.79 1.69 1.63 1.67 1.62
1.22 0.95 0.91 1.07 0.89 0.75 0.81 0.74 0.72 0.75 0.85 0.89 0.89 0.93 1.08 0.95 0.79 0.76 0.85 1.05 1.23 1.39 1.53 1.82 1.92 1.59 1.59 1.65 1.75 1.72 1.22 1.03 1.10 1.14 1.46 1.49 1.55 1.92 2.21 2.01 1.86 1.79 1.68
1.40 1.09 0.96 1.05 1.18 1.09 0.97 0.95 0.90 0.86 0.94 1.00 1.15 1.18 1.30 1.24 1.16 1.20 1.36 1.48 1.68 1.80 2.08 2.20 2.48 2.28 2.04 1.82 1.77 1.69 1.51 1.43 1.35 1.51 1.74 1.47 1.60 2.03 2.42 2.38 2.19 1.93 1.76
1.67 1.45 1.25 1.14 1.27 1.27 1.20 1.15 1.05 1.02 1.04 1.22 1.37 1.45 1.54 1.59 1.71 1.81 1.75 1.92 1.96 2.05 2.22 2.52 2.58 2.74 2.76 2.68 2.33 2.03 1.95 1.82 1.68 1.79 1.97 1.85 1.73 1.91 2.30 2.61 2.42 2.12 1.92
2.10 1.94 1.66 1.41 1.31 1.33 1.33 1.35 1.40 1.35 1.50 1.62 1.74 1.78 1.95 2.11 2.24 2.41 2.40 2.40 2.22 2.21 2.44 2.67 2.82 3.25 3.15 3.02 2.54 2.28 2.06 1.98 1.79 1.71 1.92 2.08 1.74 1.66 1.89 2.37 2.63 2.47 2.24
2.36 2.35 2.19 2.00 1.92 1.95 2.06 2.00 1.88 1.99 2.07 2.17 2.24 2.24 2.32 2.39 2.55 2.70 2.66 2.55 2.54 2.53 2.67 2.84 3.02 3.13 2.90 2.78 2.63 2.45 2.21 2.03 1.77 1.70 1.79 1.97 1.82 1.67 1.76 1.99 2.35 2.49 2.42
2.47 2.76 2.79 2.61 2.70 2.81 2.92 2.82 2.60 2.59 2.61 2.60 2.56 2.54 2.54 2.60 2.73 2.97 2.79 2.66 2.94 2.81 2.93 3.26 3.26 3.23 3.11 2.94 2.78 2.55 2.34 2.12 1.72 1.61 1.59 1.79 2.06 1.80 1.79 1.96 2.10 2.18 2.43
2.63 3.06 3.22 3.29 3.46 3.47 3.47 3.40 3.33 3.23 3.09 2.84 2.84 2.77 2.56 2.54 2.62 2.85 2.72 2.74 2.85 3.11 3.15 2.94 3.37 3.35 3.25 3.11 2.62 2.38 2.10 1.88 1.67 1.50 1.52 1.57 1.81 1.69 1.65 1.75 1.85 1.95 2.37
3.05 3.40 3.81 3.96 4.02 3.78 3.64 3.57 3.42 3.20 3.00 2.86 2.86 2.72 2.47 2.47 2.50 2.86 2.67 2.61 2.74 3.01 2.98 2.99 3.27 3.25 3.01 3.03 2.49 2.12 1.94 1.61 1.57 1.57 1.40 1.43 1.48 1.28 1.36 1.58 1.99 1.72 1.85
3.57 3.76 4.00 4.39 4.49 4.21 4.12 3.99 3.84 3.50 3.33 3.02 2.69 2.38 2.25 2.22 2.35 2.71 2.49 2.70 2.67 2.72 2.71 2.76 3.01 3.07 2.81 2.90 2.78 2.30 1.77 1.40 1.36 1.37 1.39 1.42 1.29 1.34 1.63 1.86 2.03 2.03 1.86
3.36 3.81 4.12 4.10 3.98 3.67 3.67 3.89 4.08 4.02 3.57 3.01 2.69 2.54 2.20 2.10 2.18 2.32 2.45 2.35 2.43 2.51 2.50 2.55 2.78 2.71 2.40 2.57 2.69 2.64 2.03 1.68 1.33 1.05 1.31 1.36 1.30 1.48 1.58 1.61 1.88 2.14 2.12
2.81 3.26 3.35 3.20 3.12 2.92 2.90 3.13 3.31 3.54 3.35 2.98 2.66 2.41 2.17 2.05 2.00 2.06 2.16 2.18 2.22 2.13 2.24 2.41 2.39 2.38 2.23 2.21 2.39 2.61 2.26 1.84 1.49 1.10 0.98 1.08 1.27 1.42 1.46 1.59 1.58 1.72 1.80
1.95 2.18 2.33 2.41 2.46 2.46 2.47 2.62 2.74 2.85 2.81 2.68 2.58 2.31 2.04 1.82 1.75 1.76 1.77 1.79 1.86 1.90 2.09 1.93 1.96 2.15 2.20 2.07 2.14 2.15 2.09 2.08 1.93 1.40 1.05 1.00 1.21 1.29 1.28 1.24 1.34 1.53 1.63
1.59 1.80 1.98 2.16 2.31 2.42 2.37 2.40 2.54 2.79 2.71 2.48 2.30 2.15 1.98 1.80 1.64 1.56 1.60 1.59 1.58 1.61 1.73 1.75 1.97 1.98 2.02 1.99 1.94 1.93 2.01 2.01 1.87 1.67 1.33 1.21 1.19 1.05 1.08 1.14 1.25 1.45 1.62
1.44 1.61 1.79 1.92 1.96 2.04 2.08 2.07 2.06 2.16 2.17 2.04 1.91 1.82 1.68 1.54 1.45 1.45 1.45 1.44 1.42 1.47 1.60 1.64 1.69 1.69 1.75 1.79 1.74 1.73 1.84 1.77 1.68 1.76 1.51 1.38 1.33 1.09 1.11 1.15 1.18 1.30 1.38